| time (UTC) | temp C | wind direction | speed KPH | gust KPH | rain 1hr cm | rain 24hr cm | rain mn cm | humidity % | barometer mb |
| 20260904104854 | 21 | 89 | 0.0 | 0.0 | 0.00 | 0.94 | 0.79 | 95 | 1014.1 |
| 20260904104354 | 21 | 89 | 0.0 | 1.6 | 0.00 | 0.94 | 0.79 | 95 | 1014.1 |
| 20260904103854 | 21 | 89 | 0.0 | 1.6 | 0.00 | 0.94 | 0.79 | 95 | 1014.1 |
| 20260904103351 | 21 | 89 | 0.0 | 1.6 | 0.00 | 0.94 | 0.79 | 95 | 1014.0 |
| 20260904102851 | 21 | 89 | 0.0 | 1.6 | 0.00 | 0.94 | 0.79 | 95 | 1013.9 |
| 20260904102352 | 21 | 89 | 0.0 | 1.6 | 0.00 | 0.94 | 0.79 | 95 | 1014.0 |
| 20260904101849 | 21 | 89 | 0.0 | 1.6 | 0.00 | 0.94 | 0.79 | 95 | 1013.9 |
| 20260904101350 | 21 | 89 | 0.0 | 3.2 | 0.00 | 0.94 | 0.79 | 95 | 1013.9 |
| 20260904100848 | 21 | 89 | 0.0 | 3.2 | 0.00 | 0.94 | 0.79 | 95 | 1014.0 |
| 20260904100347 | 21 | 89 | 0.0 | 0.0 | 0.00 | 0.94 | 0.79 | 95 | 1013.9 |
| 20260904095848 | 21 | 89 | 0.0 | 0.0 | 0.00 | 0.94 | 0.79 | 95 | 1013.9 |
| 20260904095612 | 21 | 89 | 0.0 | 0.0 | 0.00 | 0.94 | 0.79 | 95 | 1013.9 |
| 20260904094847 | 21 | 89 | 0.0 | 0.0 | 0.00 | 0.94 | 0.79 | 95 | 1013.8 |
| 20260904094346 | 21 | 89 | 0.0 | 0.0 | 0.00 | 0.94 | 0.79 | 95 | 1013.7 |
| 20260904093847 | 21 | 89 | 0.0 | 0.0 | 0.00 | 0.94 | 0.79 | 95 | 1013.7 |
| 20260904093346 | 21 | 89 | 0.0 | 0.0 | 0.00 | 0.94 | 0.79 | 95 | 1013.5 |
| 20260904092848 | 21 | 89 | 0.0 | 0.0 | 0.00 | 0.94 | 0.79 | 95 | 1013.6 |
| 20260904092344 | 21 | 89 | 0.0 | 0.0 | 0.00 | 0.94 | 0.79 | 95 | 1013.7 |
| 20260904091843 | 21 | 89 | 0.0 | 0.0 | 0.00 | 0.94 | 0.79 | 95 | 1013.6 |
| 20260904091343 | 21 | 89 | 0.0 | 0.0 | 0.00 | 0.94 | 0.79 | 95 | 1013.7 |
| 20260904091101 | 21 | 89 | 0.0 | 0.0 | 0.00 | 0.94 | 0.79 | 95 | 1013.8 |
| 20260904090344 | 21 | 89 | 0.0 | 0.0 | 0.00 | 0.94 | 0.79 | 95 | 1013.7 |
| 20260904085842 | 21 | 89 | 0.0 | 0.0 | 0.00 | 0.94 | 0.79 | 95 | 1013.8 |
| 20260904085344 | 21 | 89 | 0.0 | 0.0 | 0.00 | 0.94 | 0.79 | 95 | 1013.9 |
| 20260904084843 | 21 | 89 | 0.0 | 0.0 | 0.00 | 0.94 | 0.79 | 95 | 1014.0 |
| 20260904084344 | 21 | 89 | 0.0 | 0.0 | 0.00 | 0.94 | 0.79 | 95 | 1013.9 |
| 20260904083839 | 21 | 89 | 0.0 | 0.0 | 0.00 | 0.94 | 0.79 | 95 | 1013.9 |
| 20260904083338 | 21 | 89 | 0.0 | 0.0 | 0.00 | 0.94 | 0.79 | 95 | 1013.8 |
| 20260904082839 | 21 | 89 | 0.0 | 0.0 | 0.00 | 0.94 | 0.79 | 95 | 1013.9 |
| 20260904082601 | 21 | 89 | 0.0 | 0.0 | 0.00 | 0.94 | 0.79 | 94 | 1013.8 |
| 20260904081840 | 21 | 89 | 0.0 | 0.0 | 0.00 | 0.94 | 0.79 | 94 | 1013.7 |
| 20260904081338 | 21 | 89 | 0.0 | 0.0 | 0.00 | 0.94 | 0.79 | 94 | 1013.7 |
| 20260904080838 | 21 | 89 | 0.0 | 0.0 | 0.00 | 0.94 | 0.79 | 94 | 1013.7 |
| 20260904080335 | 21 | 89 | 0.0 | 0.0 | 0.00 | 0.94 | 0.79 | 94 | 1013.8 |
| 20260904080111 | 21 | 89 | 0.0 | 0.0 | 0.00 | 0.94 | 0.79 | 94 | 1013.9 |
| 20260904075334 | 21 | 89 | 0.0 | 0.0 | 0.00 | 0.94 | 0.79 | 94 | 1014.0 |
| 20260904074830 | 21 | 89 | 0.0 | 0.0 | 0.00 | 0.94 | 0.79 | 94 | 1013.9 |
| 20260904074331 | 21 | 89 | 0.0 | 0.0 | 0.00 | 0.94 | 0.79 | 94 | 1013.9 |
| 20260904073832 | 21 | 89 | 0.0 | 0.0 | 0.00 | 0.94 | 0.79 | 94 | 1013.8 |
| 20260904073332 | 21 | 89 | 0.0 | 0.0 | 0.00 | 0.94 | 0.79 | 94 | 1013.8 |
| 20260904072831 | 21 | 89 | 0.0 | 0.0 | 0.00 | 0.94 | 0.79 | 94 | 1013.7 |
| 20260904072331 | 21 | 89 | 0.0 | 0.0 | 0.00 | 0.94 | 0.79 | 94 | 1013.6 |
| 20260904071831 | 21 | 89 | 0.0 | 0.0 | 0.00 | 0.94 | 0.79 | 94 | 1013.7 |
| 20260904071326 | 21 | 89 | 0.0 | 0.0 | 0.00 | 0.94 | 0.79 | 94 | 1013.7 |
| 20260904071048 | 21 | 89 | 0.0 | 0.0 | 0.03 | 0.94 | 0.79 | 94 | 1013.6 |
| 20260904070325 | 21 | 89 | 0.0 | 0.0 | 0.03 | 0.94 | 0.79 | 94 | 1013.6 |
| 20260904065825 | 21 | 89 | 0.0 | 0.0 | 0.03 | 0.94 | 0.79 | 94 | 1013.4 |
| 20260904065543 | 21 | 89 | 0.0 | 0.0 | 0.03 | 0.94 | 0.79 | 94 | 1013.2 |
| 20260904065045 | 21 | 89 | 0.0 | 0.0 | 0.03 | 0.94 | 0.79 | 94 | 1013.5 |
| 20260904064320 | 21 | 89 | 0.0 | 0.0 | 0.03 | 0.94 | 0.79 | 94 | 1013.5 |
| 20260904063818 | 21 | 89 | 0.0 | 0.0 | 0.03 | 0.94 | 0.79 | 94 | 1013.4 |
| 20260904063315 | 21 | 89 | 0.0 | 1.6 | 0.03 | 0.94 | 0.79 | 94 | 1013.5 |
| 20260904062814 | 22 | 89 | 0.0 | 3.2 | 0.05 | 0.94 | 0.79 | 94 | 1013.5 |
| 20260904062312 | 22 | 89 | 0.0 | 3.2 | 0.08 | 0.94 | 0.79 | 94 | 1013.5 |
| 20260904061809 | 22 | 61 | 1.6 | 6.4 | 0.08 | 0.94 | 0.79 | 94 | 1013.5 |
| 20260904061307 | 22 | 301 | 1.6 | 6.4 | 0.10 | 0.94 | 0.79 | 94 | 1013.1 |
| 20260904060806 | 22 | 250 | 0.0 | 3.2 | 0.13 | 0.91 | 0.76 | 93 | 1012.9 |
| 20260904060307 | 22 | 204 | 0.0 | 1.6 | 0.15 | 0.91 | 0.76 | 93 | 1012.9 |
| 20260904055806 | 22 | 204 | 0.0 | 1.6 | 0.20 | 0.91 | 0.76 | 93 | 1013.0 |
| 20260904055530 | 22 | 271 | 0.0 | 1.6 | 0.25 | 0.91 | 0.76 | 93 | 1013.1 |
| 20260904054759 | 22 | 271 | 0.0 | 3.2 | 0.30 | 0.91 | 0.76 | 93 | 1013.1 |
| 20260904054253 | 22 | 232 | 0.0 | 3.2 | 0.38 | 0.91 | 0.76 | 93 | 1013.0 |
| 20260904053747 | 22 | 189 | 0.0 | 3.2 | 0.46 | 0.91 | 0.76 | 93 | 1013.0 |
| 20260904053241 | 22 | 189 | 0.0 | 3.2 | 0.56 | 0.91 | 0.76 | 93 | 1013.5 |
| 20260904052735 | 22 | 121 | 0.0 | 0.0 | 0.61 | 0.89 | 0.74 | 92 | 1013.9 |
| 20260904052228 | 22 | 121 | 0.0 | 0.0 | 0.69 | 0.86 | 0.74 | 92 | 1014.3 |
| 20260904051723 | 22 | 121 | 0.0 | 1.6 | 0.69 | 0.84 | 0.71 | 92 | 1014.9 |
| 20260904051217 | 22 | 121 | 0.0 | 1.6 | 0.69 | 0.84 | 0.69 | 92 | 1015.0 |
| 20260904050711 | 22 | 121 | 0.0 | 1.6 | 0.64 | 0.79 | 0.64 | 92 | 1015.2 |
| 20260904050204 | 22 | 121 | 0.0 | 3.2 | 0.58 | 0.74 | 0.61 | 92 | 1015.5 |
| 20260904045659 | 22 | 121 | 0.0 | 3.2 | 0.56 | 0.71 | 0.56 | 91 | 1015.6 |
| 20260904045651 | 22 | 175 | 0.0 | 1.6 | 0.51 | 0.66 | 0.51 | 91 | 1015.9 |
| 20260904044647 | 22 | 231 | 0.0 | 1.6 | 0.43 | 0.58 | 0.46 | 91 | 1016.0 |
| 20260904044142 | 23 | 231 | 0.0 | 4.8 | 0.36 | 0.51 | 0.38 | 90 | 1016.5 |
| 20260904043636 | 23 | 234 | 1.6 | 8.0 | 0.28 | 0.43 | 0.28 | 90 | 1017.0 |
| 20260904043129 | 23 | 355 | 4.8 | 16.1 | 0.18 | 0.33 | 0.20 | 90 | 1016.9 |
| 20260904042622 | 23 | 338 | 6.4 | 16.1 | 0.10 | 0.25 | 0.10 | 90 | 1016.6 |
| 20260904042117 | 24 | 321 | 4.8 | 16.1 | 0.03 | 0.18 | 0.03 | 90 | 1016.9 |
| 20260904041611 | 25 | 123 | 4.8 | 14.5 | 0.00 | 0.15 | 0.00 | 91 | 1016.1 |
| 20260904041104 | 25 | 273 | 6.4 | 29.0 | 0.00 | 0.15 | 0.00 | 91 | 1016.1 |
| 20260904040559 | 25 | 38 | 4.8 | 29.0 | 0.00 | 0.15 | 0.00 | 92 | 1015.9 |
| 20260904040537 | 25 | 115 | 1.6 | 20.9 | 0.00 | 0.15 | 0.00 | 93 | 1015.9 |
| 20260904035547 | 25 | 88 | 1.6 | 3.2 | 0.03 | 0.15 | 0.15 | 92 | 1015.5 |
| 20260904035043 | 25 | 0 | 0.0 | 3.2 | 0.10 | 0.15 | 0.15 | 92 | 1014.7 |
| 20260904034535 | 25 | 117 | 0.0 | 0.0 | 0.15 | 0.15 | 0.15 | 92 | 1014.3 |
| 20260904034030 | 25 | 117 | 0.0 | 0.0 | 0.15 | 0.15 | 0.15 | 91 | 1014.3 |
| 20260904033522 | 26 | 117 | 0.0 | 0.0 | 0.15 | 0.15 | 0.15 | 91 | 1014.3 |
| 20260904033245 | 26 | 117 | 0.0 | 0.0 | 0.15 | 0.15 | 0.15 | 92 | 1014.3 |
| 20260904032516 | 26 | 117 | 0.0 | 0.0 | 0.15 | 0.15 | 0.15 | 91 | 1014.3 |
| 20260904032006 | 26 | 117 | 0.0 | 1.6 | 0.15 | 0.15 | 0.15 | 91 | 1014.2 |
| 20260904031459 | 26 | 117 | 0.0 | 1.6 | 0.15 | 0.15 | 0.15 | 91 | 1014.1 |
| 20260904030953 | 26 | 117 | 0.0 | 3.2 | 0.15 | 0.15 | 0.15 | 91 | 1014.1 |
| 20260904030653 | 26 | 183 | 1.6 | 3.2 | 0.13 | 0.13 | 0.13 | 91 | 1014.0 |
| 20260904030537 | 26 | 117 | 0.0 | 3.2 | 0.15 | 0.15 | 0.15 | 90 | 1014.2 |
| 20260904025435 | 26 | 148 | 1.6 | 12.9 | 0.10 | 0.10 | 0.13 | 90 | 1014.0 |
| 20260904024931 | 26 | 113 | 1.6 | 12.9 | 0.03 | 0.03 | 0.05 | 91 | 1014.4 |
| 20260904024423 | 26 | 36 | 1.6 | 4.8 | 0.00 | 0.00 | 0.00 | 90 | 1014.6 |
| 20260904023917 | 26 | 306 | 0.0 | 3.2 | 0.00 | 0.00 | 0.00 | 90 | 1014.5 |
| 20260904023411 | 26 | 198 | 0.0 | 0.0 | 0.00 | 0.00 | 0.00 | 90 | 1014.3 |
| 20260904023133 | 26 | 198 | 0.0 | 0.0 | 0.00 | 0.00 | 0.00 | 90 | 1014.2 |
| 20260904023111 | 26 | 198 | 0.0 | 0.0 | 0.00 | 0.00 | 0.00 | 90 | 1014.3 |
| 20260904021854 | 26 | 198 | 0.0 | 0.0 | 0.00 | 0.00 | 0.00 | 90 | 1014.2 |
| 20260904021347 | 26 | 198 | 0.0 | 0.0 | 0.00 | 0.00 | 0.00 | 90 | 1014.2 |
| 20260904020841 | 26 | 198 | 0.0 | 0.0 | 0.00 | 0.00 | 0.00 | 90 | 1014.3 |
| 20260904020554 | 26 | 198 | 0.0 | 0.0 | 0.00 | 0.00 | 0.00 | 90 | 1014.3 |
| 20260904015829 | 27 | 198 | 0.0 | 0.0 | 0.00 | 0.00 | 0.00 | 89 | 1014.4 |
| 20260904015323 | 27 | 198 | 0.0 | 0.0 | 0.00 | 0.00 | 0.00 | 89 | 1014.4 |
| 20260904014817 | 27 | 198 | 0.0 | 0.0 | 0.00 | 0.00 | 0.00 | 89 | 1014.4 |
| 20260904014311 | 27 | 198 | 0.0 | 0.0 | 0.00 | 0.00 | 0.00 | 89 | 1014.4 |
| 20260904013805 | 27 | 198 | 0.0 | 0.0 | 0.00 | 0.00 | 0.00 | 89 | 1014.3 |
| 20260904013300 | 27 | 198 | 0.0 | 0.0 | 0.00 | 0.00 | 0.00 | 89 | 1014.1 |
| 20260904012753 | 27 | 198 | 0.0 | 0.0 | 0.00 | 0.00 | 0.00 | 88 | 1014.1 |
| 20260904012247 | 27 | 198 | 0.0 | 0.0 | 0.00 | 0.00 | 0.00 | 88 | 1014.1 |
| 20260904011740 | 27 | 198 | 0.0 | 0.0 | 0.00 | 0.00 | 0.00 | 88 | 1014.2 |
| 20260904011235 | 27 | 198 | 0.0 | 0.0 | 0.00 | 0.00 | 0.00 | 88 | 1014.2 |
| 20260904010736 | 27 | 198 | 0.0 | 0.0 | 0.00 | 0.00 | 0.00 | 88 | 1014.3 |
| 20260904010232 | 27 | 198 | 0.0 | 0.0 | 0.00 | 0.00 | 0.00 | 87 | 1014.4 |
| 20260904005732 | 27 | 198 | 0.0 | 0.0 | 0.00 | 0.00 | 0.00 | 87 | 1014.4 |
| 20260904005235 | 27 | 198 | 0.0 | 0.0 | 0.00 | 0.00 | 0.00 | 87 | 1014.5 |
| 20260904004730 | 27 | 198 | 0.0 | 0.0 | 0.00 | 0.00 | 0.00 | 86 | 1014.5 |
| 20260904004716 | 27 | 198 | 0.0 | 0.0 | 0.00 | 0.00 | 0.00 | 86 | 1014.7 |
| 20260904003729 | 27 | 198 | 0.0 | 0.0 | 0.00 | 0.00 | 0.00 | 86 | 1014.7 |
| 20260904003229 | 27 | 198 | 0.0 | 0.0 | 0.00 | 0.00 | 0.00 | 86 | 1014.9 |
| 20260904002950 | 28 | 198 | 0.0 | 0.0 | 0.00 | 0.00 | 0.00 | 85 | 1014.9 |
| 20260904002455 | 28 | 198 | 0.0 | 0.0 | 0.00 | 0.00 | 0.00 | 85 | 1014.9 |
| 20260904001721 | 28 | 198 | 0.0 | 0.0 | 0.00 | 0.00 | 0.00 | 85 | 1014.8 |
| 20260904001221 | 28 | 198 | 0.0 | 0.0 | 0.00 | 0.00 | 0.00 | 85 | 1014.8 |
| 20260904000719 | 28 | 198 | 0.0 | 0.0 | 0.00 | 0.00 | 0.00 | 84 | 1014.8 |
| 20260904000218 | 28 | 198 | 0.0 | 0.0 | 0.00 | 0.00 | 0.00 | 84 | 1014.6 |
| 20260903235938 | 28 | 198 | 0.0 | 0.0 | 0.00 | 0.00 | 0.00 | 83 | 1014.7 |
| 20260903235437 | 28 | 198 | 0.0 | 0.0 | 0.00 | 0.00 | 0.00 | 83 | 1014.6 |
| 20260903234716 | 28 | 198 | 0.0 | 0.0 | 0.00 | 0.00 | 0.00 | 83 | 1014.5 |
| 20260903234213 | 28 | 198 | 0.0 | 0.0 | 0.00 | 0.00 | 0.00 | 82 | 1014.5 |
| 20260903233710 | 29 | 198 | 0.0 | 0.0 | 0.00 | 0.00 | 0.00 | 82 | 1014.2 |
| 20260903233210 | 29 | 198 | 0.0 | 0.0 | 0.00 | 0.00 | 0.00 | 82 | 1014.3 |
| 20260903232710 | 29 | 198 | 0.0 | 0.0 | 0.00 | 0.00 | 0.00 | 81 | 1014.2 |
| 20260903232203 | 29 | 198 | 0.0 | 0.0 | 0.00 | 0.00 | 0.00 | 81 | 1014.3 |
| 20260903231657 | 29 | 198 | 0.0 | 0.0 | 0.00 | 0.00 | 0.00 | 81 | 1014.2 |
| 20260903231151 | 30 | 198 | 0.0 | 0.0 | 0.00 | 0.00 | 0.00 | 81 | 1014.3 |
| 20260903230647 | 30 | 198 | 0.0 | 0.0 | 0.00 | 0.00 | 0.00 | 81 | 1014.3 |
| 20260903230139 | 30 | 198 | 0.0 | 0.0 | 0.00 | 0.00 | 0.00 | 80 | 1014.3 |
| 20260903225633 | 30 | 198 | 0.0 | 0.0 | 0.00 | 0.00 | 0.00 | 80 | 1014.2 |
| 20260903225127 | 30 | 198 | 0.0 | 0.0 | 0.00 | 0.00 | 0.00 | 80 | 1014.2 |
| 20260903224621 | 30 | 198 | 0.0 | 1.6 | 0.00 | 0.00 | 0.00 | 79 | 1014.2 |
| 20260903224115 | 30 | 198 | 0.0 | 1.6 | 0.00 | 0.00 | 0.00 | 79 | 1014.0 |
| 20260903223609 | 30 | 201 | 0.0 | 3.2 | 0.00 | 0.00 | 0.00 | 79 | 1014.0 |
| 20260903223103 | 30 | 205 | 0.0 | 3.2 | 0.00 | 0.00 | 0.00 | 78 | 1014.0 |
| 20260903222557 | 30 | 285 | 0.0 | 4.8 | 0.00 | 0.00 | 0.00 | 79 | 1014.0 |
| 20260903222051 | 30 | 182 | 0.0 | 4.8 | 0.00 | 0.00 | 0.00 | 78 | 1013.9 |
| 20260903221545 | 30 | 238 | 0.0 | 3.2 | 0.00 | 0.00 | 0.00 | 78 | 1013.7 |
| 20260903221039 | 31 | 238 | 0.0 | 3.2 | 0.00 | 0.00 | 0.00 | 75 | 1013.7 |
| 20260903220533 | 31 | 257 | 0.0 | 3.2 | 0.00 | 0.00 | 0.00 | 73 | 1013.7 |
| 20260903220254 | 31 | 181 | 1.6 | 9.7 | 0.00 | 0.00 | 0.00 | 74 | 1013.8 |
| 20260903215531 | 31 | 175 | 1.6 | 9.7 | 0.00 | 0.00 | 0.00 | 72 | 1013.9 |
| 20260903215252 | 31 | 139 | 0.0 | 3.2 | 0.00 | 0.00 | 0.00 | 73 | 1013.8 |
| 20260903214533 | 30 | 229 | 0.0 | 4.8 | 0.00 | 0.00 | 0.00 | 73 | 1013.9 |
| 20260903214032 | 30 | 192 | 1.6 | 4.8 | 0.00 | 0.00 | 0.00 | 73 | 1014.0 |
| 20260903213530 | 30 | 242 | 1.6 | 4.8 | 0.00 | 0.00 | 0.00 | 72 | 1014.0 |
| 20260903213030 | 30 | 286 | 1.6 | 4.8 | 0.00 | 0.00 | 0.00 | 72 | 1014.0 |
| 20260903212531 | 30 | 228 | 1.6 | 6.4 | 0.00 | 0.00 | 0.00 | 74 | 1014.0 |
| 20260903212256 | 30 | 242 | 1.6 | 6.4 | 0.00 | 0.00 | 0.00 | 71 | 1014.1 |
| 20260903211529 | 30 | 32 | 1.6 | 4.8 | 0.00 | 0.00 | 0.00 | 72 | 1014.2 |
| 20260903211030 | 30 | 343 | 1.6 | 9.7 | 0.00 | 0.00 | 0.00 | 72 | 1014.3 |
| 20260903210751 | 31 | 215 | 1.6 | 9.7 | 0.00 | 0.00 | 0.00 | 71 | 1014.3 |
| 20260903210250 | 31 | 257 | 1.6 | 8.0 | 0.00 | 0.00 | 0.00 | 72 | 1014.3 |
| 20260903205531 | 31 | 280 | 1.6 | 8.0 | 0.00 | 0.00 | 0.00 | 72 | 1014.3 |
| 20260903205032 | 31 | 264 | 1.6 | 9.7 | 0.00 | 0.00 | 0.00 | 72 | 1014.3 |
| 20260903204529 | 31 | 283 | 1.6 | 9.7 | 0.00 | 0.00 | 0.00 | 71 | 1014.3 |
| 20260903204030 | 31 | 327 | 1.6 | 14.5 | 0.00 | 0.00 | 0.00 | 75 | 1014.5 |
| 20260903203531 | 31 | 345 | 3.2 | 14.5 | 0.00 | 0.00 | 0.00 | 71 | 1014.4 |
| 20260903203026 | 31 | 221 | 1.6 | 8.0 | 0.00 | 0.00 | 0.00 | 73 | 1014.4 |
| 20260903202526 | 31 | 334 | 1.6 | 6.4 | 0.00 | 0.00 | 0.00 | 72 | 1014.5 |
| 20260903202027 | 31 | 271 | 1.6 | 6.4 | 0.00 | 0.00 | 0.00 | 72 | 1014.6 |
| 20260903201526 | 31 | 263 | 3.2 | 6.4 | 0.00 | 0.03 | 0.00 | 71 | 1014.8 |
| 20260903201248 | 31 | 225 | 3.2 | 9.7 | 0.00 | 0.03 | 0.00 | 69 | 1014.8 |
| 20260903200745 | 31 | 115 | 3.2 | 9.7 | 0.00 | 0.03 | 0.00 | 70 | 1014.9 |
| 20260903200027 | 32 | 247 | 1.6 | 6.4 | 0.00 | 0.03 | 0.00 | 68 | 1015.0 |
| 20260903195524 | 32 | 191 | 1.6 | 4.8 | 0.00 | 0.08 | 0.00 | 71 | 1015.1 |
| 20260903195025 | 31 | 355 | 1.6 | 4.8 | 0.00 | 0.10 | 0.00 | 71 | 1015.1 |
| 20260903194524 | 31 | 290 | 1.6 | 6.4 | 0.00 | 0.13 | 0.00 | 71 | 1015.2 |
| 20260903194023 | 31 | 248 | 1.6 | 6.4 | 0.00 | 0.15 | 0.00 | 70 | 1015.3 |
| 20260903193750 | 31 | 295 | 1.6 | 6.4 | 0.00 | 0.23 | 0.00 | 72 | 1015.4 |
| 20260903193020 | 31 | 169 | 1.6 | 6.4 | 0.00 | 0.28 | 0.00 | 73 | 1015.4 |
| 20260903192519 | 31 | 140 | 1.6 | 6.4 | 0.00 | 0.28 | 0.00 | 71 | 1015.6 |
| 20260903192021 | 31 | 121 | 1.6 | 6.4 | 0.00 | 0.28 | 0.00 | 71 | 1015.7 |
| 20260903191517 | 31 | 216 | 1.6 | 6.4 | 0.00 | 0.28 | 0.00 | 69 | 1015.8 |
| 20260903191018 | 31 | 204 | 1.6 | 4.8 | 0.00 | 0.28 | 0.00 | 73 | 1015.7 |
| 20260903190519 | 31 | 115 | 1.6 | 6.4 | 0.00 | 0.28 | 0.00 | 73 | 1015.8 |
| 20260903190019 | 30 | 262 | 1.6 | 6.4 | 0.00 | 0.28 | 0.00 | 74 | 1015.9 |
| 20260903185518 | 30 | 243 | 1.6 | 6.4 | 0.00 | 0.28 | 0.00 | 75 | 1016.0 |
| 20260903185236 | 29 | 45 | 1.6 | 4.8 | 0.00 | 0.28 | 0.00 | 77 | 1016.0 |
| 20260903184731 | 29 | 265 | 1.6 | 4.8 | 0.00 | 0.28 | 0.00 | 76 | 1016.0 |
| 20260903184011 | 29 | 232 | 1.6 | 6.4 | 0.00 | 0.28 | 0.00 | 77 | 1016.1 |
| 20260903183513 | 30 | 317 | 1.6 | 6.4 | 0.00 | 0.28 | 0.00 | 76 | 1016.0 |
| 20260903183013 | 29 | 227 | 1.6 | 6.4 | 0.00 | 0.28 | 0.00 | 77 | 1016.1 |
| 20260903182733 | 29 | 283 | 1.6 | 6.4 | 0.00 | 0.28 | 0.00 | 77 | 1016.2 |
| 20260903182235 | 29 | 263 | 1.6 | 6.4 | 0.00 | 0.28 | 0.00 | 78 | 1016.3 |
| 20260903181506 | 28 | 311 | 0.0 | 4.8 | 0.00 | 0.28 | 0.00 | 80 | 1015.9 |
| 20260903181219 | 29 | 119 | 0.0 | 4.8 | 0.00 | 0.28 | 0.00 | 79 | 1015.8 |
| 20260903180453 | 28 | 250 | 0.0 | 3.2 | 0.00 | 0.28 | 0.00 | 76 | 1016.1 |
| 20260903175948 | 28 | 248 | 1.6 | 3.2 | 0.00 | 0.28 | 0.00 | 77 | 1016.4 |
| 20260903175441 | 28 | 69 | 0.0 | 3.2 | 0.00 | 0.28 | 0.00 | 78 | 1016.5 |
| 20260903174934 | 29 | 296 | 0.0 | 3.2 | 0.00 | 0.28 | 0.00 | 76 | 1016.8 |
| 20260903174427 | 28 | 298 | 1.6 | 3.2 | 0.00 | 0.28 | 0.00 | 78 | 1016.8 |
| 20260903173921 | 28 | 298 | 1.6 | 3.2 | 0.00 | 0.28 | 0.00 | 76 | 1016.8 |
| 20260903173415 | 29 | 10 | 1.6 | 3.2 | 0.00 | 0.28 | 0.00 | 77 | 1016.8 |
| 20260903172909 | 29 | 274 | 1.6 | 4.8 | 0.00 | 0.28 | 0.00 | 74 | 1016.9 |
| 20260903171858 | 29 | 320 | 1.6 | 8.0 | 0.00 | 0.28 | 0.00 | 76 | 1017.2 |
| 20260903171351 | 29 | 295 | 1.6 | 8.0 | 0.00 | 0.28 | 0.00 | 76 | 1017.3 |
| 20260903170845 | 29 | 319 | 1.6 | 6.4 | 0.00 | 0.28 | 0.00 | 76 | 1017.5 |
| 20260903170339 | 30 | 320 | 1.6 | 4.8 | 0.00 | 0.28 | 0.00 | 75 | 1017.6 |
| 20260903170057 | 29 | 109 | 3.2 | 11.3 | 0.00 | 0.28 | 0.00 | 76 | 1017.6 |
| 20260903165549 | 29 | 299 | 3.2 | 11.3 | 0.00 | 0.28 | 0.00 | 73 | 1017.6 |
| 20260903164821 | 29 | 278 | 1.6 | 12.9 | 0.00 | 0.28 | 0.00 | 77 | 1017.7 |
| 20260903164315 | 30 | 267 | 1.6 | 12.9 | 0.00 | 0.28 | 0.00 | 76 | 1017.7 |
| 20260903163809 | 29 | 64 | 1.6 | 6.4 | 0.00 | 0.28 | 0.00 | 77 | 1018.0 |
| 20260903163303 | 28 | 67 | 1.6 | 8.0 | 0.00 | 0.28 | 0.00 | 78 | 1017.8 |
| 20260903163020 | 29 | 40 | 0.0 | 8.0 | 0.00 | 0.28 | 0.00 | 77 | 1017.8 |
| 20260903162251 | 28 | 36 | 0.0 | 3.2 | 0.00 | 0.28 | 0.00 | 79 | 1017.8 |
| 20260903161746 | 28 | 340 | 0.0 | 3.2 | 0.00 | 0.28 | 0.00 | 77 | 1017.8 |
| 20260903161240 | 28 | 270 | 0.0 | 4.8 | 0.00 | 0.28 | 0.00 | 77 | 1017.6 |
| 20260903160733 | 28 | 321 | 1.6 | 6.4 | 0.00 | 0.28 | 0.00 | 78 | 1017.6 |
| 20260903160228 | 28 | 313 | 0.0 | 6.4 | 0.00 | 0.28 | 0.00 | 80 | 1017.5 |
| 20260903155922 | 27 | 252 | 0.0 | 1.6 | 0.00 | 0.28 | 0.00 | 83 | 1017.8 |
| 20260903155809 | 28 | 321 | 0.0 | 1.6 | 0.00 | 0.28 | 0.00 | 81 | 1017.7 |
| 20260903154709 | 27 | 322 | 0.0 | 3.2 | 0.00 | 0.28 | 0.00 | 83 | 1017.8 |
| 20260903154203 | 27 | 270 | 0.0 | 3.2 | 0.00 | 0.28 | 0.00 | 82 | 1017.9 |
| 20260903153657 | 27 | 270 | 0.0 | 3.2 | 0.00 | 0.28 | 0.00 | 83 | 1017.8 |
| 20260903153157 | 27 | 269 | 0.0 | 3.2 | 0.00 | 0.28 | 0.00 | 84 | 1017.8 |
| 20260903152657 | 26 | 227 | 0.0 | 4.8 | 0.00 | 0.28 | 0.00 | 87 | 1017.9 |
| 20260903152158 | 26 | 247 | 0.0 | 4.8 | 0.00 | 0.28 | 0.00 | 86 | 1018.0 |
| 20260903151918 | 26 | 236 | 0.0 | 1.6 | 0.00 | 0.28 | 0.00 | 86 | 1017.9 |
| 20260903151158 | 26 | 252 | 0.0 | 3.2 | 0.00 | 0.28 | 0.00 | 87 | 1017.9 |
| 20260903150659 | 26 | 238 | 1.6 | 4.8 | 0.00 | 0.28 | 0.00 | 86 | 1018.0 |
| 20260903150155 | 26 | 313 | 1.6 | 4.8 | 0.00 | 0.28 | 0.00 | 85 | 1018.0 |
| 20260903145656 | 26 | 71 | 1.6 | 3.2 | 0.00 | 0.28 | 0.00 | 86 | 1017.9 |
| 20260903145157 | 25 | 153 | 0.0 | 3.2 | 0.00 | 0.28 | 0.00 | 89 | 1017.8 |
| 20260903145136 | 25 | 245 | 0.0 | 3.2 | 0.00 | 0.28 | 0.00 | 88 | 1017.8 |
| 20260903144642 | 25 | 146 | 0.0 | 3.2 | 0.00 | 0.28 | 0.00 | 90 | 1017.7 |
| 20260903143656 | 25 | 71 | 0.0 | 1.6 | 0.00 | 0.28 | 0.00 | 90 | 1017.5 |
| 20260903143157 | 25 | 70 | 0.0 | 1.6 | 0.00 | 0.28 | 0.00 | 91 | 1017.6 |
| 20260903142655 | 24 | 71 | 0.0 | 1.6 | 0.00 | 0.28 | 0.00 | 92 | 1017.5 |
| 20260903142155 | 24 | 71 | 0.0 | 1.6 | 0.00 | 0.28 | 0.00 | 93 | 1017.6 |
| 20260903141653 | 24 | 71 | 0.0 | 3.2 | 0.00 | 0.28 | 0.00 | 93 | 1017.6 |
| 20260903141154 | 24 | 70 | 0.0 | 3.2 | 0.00 | 0.28 | 0.00 | 93 | 1017.5 |
| 20260903140912 | 24 | 71 | 0.0 | 3.2 | 0.00 | 0.28 | 0.00 | 94 | 1017.5 |
| 20260903140142 | 24 | 5 | 0.0 | 3.2 | 0.00 | 0.28 | 0.00 | 94 | 1017.4 |
| 20260903135636 | 23 | 5 | 0.0 | 3.2 | 0.00 | 0.28 | 0.00 | 94 | 1017.7 |
| 20260903135130 | 23 | 66 | 0.0 | 3.2 | 0.00 | 0.28 | 0.00 | 95 | 1017.8 |
| 20260903134624 | 23 | 55 | 0.0 | 1.6 | 0.00 | 0.28 | 0.00 | 96 | 1017.8 |
| 20260903134338 | 23 | 106 | 0.0 | 1.6 | 0.00 | 0.28 | 0.00 | 96 | 1017.6 |
| 20260903133612 | 23 | 106 | 0.0 | 1.6 | 0.00 | 0.28 | 0.00 | 96 | 1017.6 |
| 20260903133106 | 23 | 70 | 0.0 | 1.6 | 0.00 | 0.28 | 0.00 | 96 | 1017.7 |
| 20260903132600 | 23 | 54 | 0.0 | 3.2 | 0.00 | 0.28 | 0.00 | 96 | 1017.8 |
| 20260903132313 | 23 | 49 | 0.0 | 3.2 | 0.00 | 0.28 | 0.00 | 96 | 1017.8 |
| 20260903131548 | 23 | 57 | 0.0 | 1.6 | 0.00 | 0.28 | 0.00 | 96 | 1018.0 |
| 20260903131043 | 23 | 27 | 1.6 | 6.4 | 0.00 | 0.28 | 0.00 | 96 | 1018.2 |
| 20260903130536 | 23 | 91 | 1.6 | 6.4 | 0.00 | 0.28 | 0.00 | 96 | 1018.2 |
| 20260903130029 | 22 | 85 | 1.6 | 4.8 | 0.00 | 0.28 | 0.00 | 96 | 1018.3 |
| 20260903125524 | 22 | 107 | 1.6 | 11.3 | 0.00 | 0.28 | 0.00 | 96 | 1018.3 |
| 20260903125018 | 22 | 67 | 1.6 | 11.3 | 0.00 | 0.28 | 0.00 | 96 | 1018.3 |
| 20260903124514 | 22 | 61 | 1.6 | 4.8 | 0.00 | 0.28 | 0.00 | 96 | 1018.4 |
| 20260903124013 | 22 | 82 | 0.0 | 4.8 | 0.00 | 0.28 | 0.00 | 96 | 1018.5 |
| 20260903123735 | 22 | 75 | 1.6 | 4.8 | 0.00 | 0.28 | 0.00 | 96 | 1018.6 |
| 20260903123012 | 22 | 67 | 1.6 | 4.8 | 0.00 | 0.28 | 0.00 | 96 | 1018.5 |
| 20260903122509 | 22 | 93 | 1.6 | 4.8 | 0.00 | 0.28 | 0.00 | 96 | 1018.4 |
| 20260903122009 | 22 | 63 | 1.6 | 9.7 | 0.00 | 0.28 | 0.00 | 96 | 1018.4 |
| 20260903121507 | 22 | 59 | 1.6 | 9.7 | 0.00 | 0.28 | 0.00 | 96 | 1018.5 |
| 20260903121007 | 22 | 87 | 1.6 | 9.7 | 0.00 | 0.28 | 0.00 | 96 | 1018.6 |
| 20260903120728 | 22 | 170 | 3.2 | 9.7 | 0.00 | 0.28 | 0.00 | 96 | 1018.5 |
| 20260903120004 | 22 | 96 | 1.6 | 8.0 | 0.00 | 0.28 | 0.00 | 96 | 1018.5 |
| 20260903115506 | 22 | 103 | 1.6 | 8.0 | 0.00 | 0.28 | 0.00 | 96 | 1018.3 |
| 20260903115225 | 22 | 71 | 1.6 | 6.4 | 0.00 | 0.28 | 0.00 | 96 | 1018.2 |
| 20260903114504 | 22 | 87 | 0.0 | 1.6 | 0.00 | 0.28 | 0.00 | 96 | 1017.8 |
| 20260903114006 | 22 | 95 | 1.6 | 4.8 | 0.00 | 0.28 | 0.00 | 96 | 1017.6 |
| 20260903113506 | 22 | 95 | 1.6 | 4.8 | 0.00 | 0.28 | 0.00 | 96 | 1017.7 |
| 20260903113001 | 22 | 313 | 0.0 | 3.2 | 0.00 | 0.28 | 0.00 | 96 | 1017.9 |
| 20260903112503 | 22 | 192 | 0.0 | 1.6 | 0.00 | 0.28 | 0.00 | 96 | 1017.4 |
| 20260903112003 | 22 | 192 | 0.0 | 0.0 | 0.00 | 0.28 | 0.00 | 96 | 1017.3 |
| 20260903111501 | 22 | 192 | 0.0 | 0.0 | 0.00 | 0.28 | 0.00 | 96 | 1017.3 |
| 20260903111002 | 22 | 192 | 0.0 | 0.0 | 0.00 | 0.28 | 0.00 | 96 | 1017.2 |
| 20260903110502 | 22 | 192 | 0.0 | 0.0 | 0.00 | 0.28 | 0.00 | 96 | 1017.1 |
| 20260903110002 | 22 | 192 | 0.0 | 0.0 | 0.00 | 0.28 | 0.00 | 96 | 1017.0 |
| 20260903105500 | 22 | 192 | 0.0 | 0.0 | 0.00 | 0.28 | 0.00 | 96 | 1016.8 |